MPG808 KLAX-EHAM

Flight info

Callsign MPG808
Flight time N/A
Altitude 33000
Route ORCKA5 LAS DCT BAWER DCT HVE J60 DBL/N0485F350 J60 DVV DCT OBH DCT JORDY DCT BAE DCT ASP DCT ROSVO DCT ANCER/N0483F370 N795B JANJO/M084F380 NATT GOMUP/N0472F380 NATT GINGA/N0482F410 DCT ERKIT N110 DOLAS L603 LAMSO
Aircraft MD11/H-SDE1E2E3FGHIJ2J3J4J5M1RWXY/LB1D1

Departure

Time N/A
Airport Los Angeles International Airport (KLAX)

Arrival

Time 2026-04-28 05:00
Airport Amsterdam Airport Schiphol (EHAM)
Time Latitude Longitude Altitude Speed Heading
2026-04-28 04:29 52.95698 1.14446 33322 ft 465 kts 95°
2026-04-28 04:29 52.94862 1.25088 33321 ft 466 kts 96°
2026-04-28 04:30 52.93827 1.35625 33321 ft 467 kts 98°
2026-04-28 04:30 52.92619 1.46218 33321 ft 468 kts 99°
2026-04-28 04:31 52.91974 1.51665 33321 ft 469 kts 99°
2026-04-28 04:31 52.91643 1.54453 33321 ft 469 kts 99°
2026-04-28 04:32 52.90384 1.64989 33321 ft 470 kts 99°
2026-04-28 04:32 52.89112 1.75601 33318 ft 470 kts 99°
2026-04-28 04:33 52.87830 1.86238 33004 ft 473 kts 99°
2026-04-28 04:33 52.87187 1.91556 32664 ft 471 kts 99°
2026-04-28 04:33 52.86542 1.96853 32120 ft 467 kts 100°
2026-04-28 04:33 52.85900 2.02100 31542 ft 464 kts 100°
2026-04-28 04:34 52.85267 2.07270 30985 ft 466 kts 101°
2026-04-28 04:34 52.84621 2.12536 30422 ft 468 kts 101°
2026-04-28 04:34 52.83973 2.17806 29833 ft 469 kts 101°
2026-04-28 04:34 52.83316 2.23093 29239 ft 467 kts 101°
2026-04-28 04:35 52.82662 2.28323 28649 ft 462 kts 101°
2026-04-28 04:35 52.82013 2.33499 28058 ft 457 kts 101°
2026-04-28 04:35 52.81366 2.38612 27485 ft 452 kts 102°
2026-04-28 04:35 52.80702 2.43666 26917 ft 448 kts 102°
2026-04-28 04:36 52.80051 2.48601 26357 ft 443 kts 102°
2026-04-28 04:36 52.79400 2.53552 25785 ft 439 kts 102°
2026-04-28 04:36 52.78766 2.58452 25198 ft 434 kts 102°
2026-04-28 04:36 52.78140 2.63295 24613 ft 430 kts 102°
2026-04-28 04:37 52.77517 2.68102 24033 ft 425 kts 102°
2026-04-28 04:37 52.76902 2.72848 23470 ft 420 kts 102°
2026-04-28 04:37 52.76294 2.77531 22906 ft 417 kts 102°
2026-04-28 04:37 52.75688 2.82190 22348 ft 413 kts 102°
2026-04-28 04:38 52.75088 2.86753 21779 ft 410 kts 102°
2026-04-28 04:38 52.74484 2.91329 21210 ft 406 kts 102°
2026-04-28 04:38 52.73887 2.95859 20638 ft 402 kts 103°
2026-04-28 04:38 52.73045 3.00232 20090 ft 400 kts 112°
2026-04-28 04:39 52.71835 3.04327 19561 ft 396 kts 117°
2026-04-28 04:39 52.70478 3.08270 19020 ft 394 kts 120°
2026-04-28 04:39 52.69085 3.12136 18500 ft 391 kts 120°
2026-04-28 04:39 52.67703 3.15968 17963 ft 387 kts 119°
2026-04-28 04:40 52.66361 3.19747 17446 ft 385 kts 119°
2026-04-28 04:40 52.65014 3.23542 16919 ft 383 kts 119°
2026-04-28 04:40 52.63671 3.27302 16413 ft 380 kts 119°
2026-04-28 04:40 52.62349 3.31041 15903 ft 375 kts 119°
2026-04-28 04:41 52.61038 3.34736 15398 ft 373 kts 119°
2026-04-28 04:41 52.59745 3.38404 14911 ft 369 kts 119°
2026-04-28 04:41 52.58644 3.42173 14421 ft 366 kts 109°
2026-04-28 04:41 52.57993 3.46198 13937 ft 362 kts 102°
2026-04-28 04:42 52.57550 3.50194 13471 ft 359 kts 99°
2026-04-28 04:42 52.57156 3.54237 12994 ft 357 kts 99°
2026-04-28 04:42 52.56769 3.58260 12386 ft 354 kts 99°
2026-04-28 04:42 52.56377 3.62225 11857 ft 349 kts 100°
2026-04-28 04:43 52.55979 3.66149 11378 ft 346 kts 100°
2026-04-28 04:43 52.55574 3.70038 10980 ft 345 kts 100°
2026-04-28 04:43 52.55165 3.73907 10758 ft 341 kts 100°
2026-04-28 04:43 52.54769 3.77612 10649 ft 315 kts 100°
2026-04-28 04:44 52.54409 3.80970 10544 ft 291 kts 100°
2026-04-28 04:44 52.54069 3.84115 10438 ft 270 kts 100°
2026-04-28 04:44 52.53740 3.87153 10339 ft 270 kts 100°
2026-04-28 04:44 52.53412 3.90176 10233 ft 269 kts 100°
2026-04-28 04:45 52.53083 3.93191 10118 ft 268 kts 100°
2026-04-28 04:45 52.52676 3.96173 9998 ft 268 kts 107°
2026-04-28 04:45 52.52055 3.99046 9979 ft 266 kts 110°
2026-04-28 04:45 52.51409 4.01750 9965 ft 242 kts 111°
2026-04-28 04:46 52.50787 4.04305 9967 ft 240 kts 111°
2026-04-28 04:46 52.50165 4.06856 9967 ft 248 kts 111°
2026-04-28 04:46 52.49499 4.09581 9920 ft 268 kts 111°
2026-04-28 04:46 52.48655 4.12283 9376 ft 264 kts 127°
2026-04-28 04:47 52.47281 4.14320 9017 ft 268 kts 141°
2026-04-28 04:47 52.45756 4.16112 8622 ft 271 kts 142°
2026-04-28 04:47 52.44235 4.17920 8149 ft 268 kts 141°
2026-04-28 04:47 52.42756 4.19754 7723 ft 265 kts 140°
2026-04-28 04:48 52.41310 4.21604 7316 ft 263 kts 139°
2026-04-28 04:48 52.39893 4.23465 6944 ft 261 kts 138°
2026-04-28 04:48 52.38509 4.25319 6599 ft 259 kts 138°
2026-04-28 04:48 52.37142 4.27174 6250 ft 257 kts 137°
2026-04-28 04:49 52.35773 4.29043 5906 ft 255 kts 137°
2026-04-28 04:49 52.34449 4.30852 5562 ft 239 kts 137°
2026-04-28 04:49 52.33228 4.32524 5251 ft 220 kts 136°
2026-04-28 04:49 52.32121 4.34040 4977 ft 200 kts 136°
2026-04-28 04:50 52.31073 4.35490 4718 ft 198 kts 135°
2026-04-28 04:50 52.30021 4.36947 4444 ft 200 kts 135°
2026-04-28 04:50 52.28977 4.38394 4191 ft 195 kts 134°
2026-04-28 04:50 52.27977 4.39781 3930 ft 179 kts 134°
2026-04-28 04:51 52.27064 4.41024 3737 ft 168 kts 136°
2026-04-28 04:51 52.26106 4.42093 3608 ft 165 kts 141°
2026-04-28 04:51 52.25131 4.43080 3546 ft 169 kts 148°
2026-04-28 04:51 52.23937 4.43311 3426 ft 179 kts 185°
2026-04-28 04:52 52.22733 4.42805 3457 ft 178 kts 188°
2026-04-28 04:52 52.21588 4.42300 3271 ft 164 kts 188°
2026-04-28 04:52 52.20522 4.41658 3178 ft 171 kts 209°
2026-04-28 04:52 52.19634 4.40398 3025 ft 171 kts 218°
2026-04-28 04:53 52.18669 4.39333 2923 ft 163 kts 188°
2026-04-28 04:53 52.17647 4.39526 2894 ft 144 kts 139°
2026-04-28 04:53 52.17140 4.40770 2869 ft 131 kts 91°
2026-04-28 04:53 52.17343 4.42167 2910 ft 129 kts 65°
2026-04-28 04:54 52.17742 4.43518 2925 ft 142 kts 65°
2026-04-28 04:54 52.18202 4.45095 2987 ft 160 kts 65°
2026-04-28 04:54 52.18667 4.46680 2938 ft 161 kts 65°
2026-04-28 04:54 52.19162 4.48377 2970 ft 163 kts 66°
2026-04-28 04:55 52.19650 4.50055 2971 ft 164 kts 65°
2026-04-28 04:55 52.20137 4.51738 2973 ft 164 kts 65°
2026-04-28 04:55 52.20669 4.53372 2945 ft 166 kts 54°
2026-04-28 04:55 52.21461 4.54640 2730 ft 149 kts 49°
2026-04-28 04:56 52.22031 4.55909 2459 ft 132 kts 58°
2026-04-28 04:56 52.22526 4.57140 2318 ft 128 kts 57°
2026-04-28 04:56 52.23018 4.58382 2185 ft 131 kts 57°
2026-04-28 04:56 52.23506 4.59627 2007 ft 132 kts 58°
2026-04-28 04:57 52.23997 4.60893 1817 ft 132 kts 57°
2026-04-28 04:57 52.24490 4.62169 1646 ft 134 kts 57°
2026-04-28 04:57 52.24984 4.63450 1462 ft 134 kts 57°
2026-04-28 04:57 52.25481 4.64742 1283 ft 135 kts 56°
2026-04-28 04:58 52.25980 4.66056 1106 ft 137 kts 57°
2026-04-28 04:58 52.26475 4.67379 923 ft 136 kts 56°
2026-04-28 04:58 52.26979 4.68688 728 ft 136 kts 57°
2026-04-28 04:58 52.27468 4.69973 553 ft 136 kts 56°
2026-04-28 04:59 52.27984 4.71279 388 ft 136 kts 55°
2026-04-28 04:59 52.28484 4.72602 208 ft 137 kts 56°
2026-04-28 04:59 52.28987 4.73918 28 ft 136 kts 57°
2026-04-28 04:59 52.29415 4.75030 5 ft 91 kts 58°
2026-04-28 05:00 52.29673 4.75712 5 ft 56 kts 58°
2026-04-28 05:00 52.29882 4.76250 4 ft 50 kts 57°
2026-04-28 05:00 52.30021 4.76535 6 ft 24 kts 35°
2026-04-28 05:00 52.30157 4.76656 6 ft 17 kts 25°
2026-04-28 05:01 52.30244 4.76723 6 ft 14 kts 26°
2026-04-28 05:01 52.30311 4.76821 8 ft 12 kts 52°
2026-04-28 05:01 52.30358 4.76939 6 ft 13 kts 57°
2026-04-28 05:01 52.30418 4.77097 6 ft 20 kts 58°
2026-04-28 05:02 52.30484 4.77267 6 ft 11 kts 58°
2026-04-28 05:02 52.30538 4.77320 6 ft 9 kts
2026-04-28 05:02 52.30600 4.77283 6 ft 11 kts 333°
2026-04-28 05:02 52.30648 4.77206 6 ft 7 kts 289°
2026-04-28 05:03 52.30651 4.77125 8 ft 8 kts 273°
2026-04-28 05:03 52.30654 4.77015 6 ft 11 kts 272°
2026-04-28 05:03 52.30661 4.76895 8 ft 3 kts 287°
2026-04-28 05:03 52.30672 4.76865 8 ft 4 kts 303°
2026-04-28 05:04 52.30692 4.76813 6 ft 2 kts 303°
2026-04-28 05:04 52.30699 4.76799 8 ft 3 kts 309°
2026-04-28 05:04 52.30719 4.76781 8 ft 4 kts 339°
2026-04-28 05:04 52.30741 4.76782 6 ft 3 kts 11°
2026-04-28 05:05 52.30748 4.76794 6 ft 1 kts 50°
2026-04-28 05:05 52.30753 4.76809 6 ft 3 kts 60°
2026-04-28 05:05 52.30762 4.76834 6 ft 0 kts 57°
2026-04-28 05:05 52.30767 4.76845 6 ft 2 kts 56°
2026-04-28 05:06 52.30774 4.76862 6 ft 0 kts 57°